Flag for Brazil Weather past 2 weeks in Santarém, Para, Brazil

Now
84 °F

Passing clouds.


Feels Like: 92 °F
Forecast: 74 / 92 °F
Wind: 5 mph from East

Location: Santarem-Aeroporto

Current Time: Sep 30, 2014 at 9:51:52 PM

Latest Report: Sep 30, 2014 at 9:00 PM


Visibility: N/A

Pressure: 29.86 "Hg

Humidity: 74%

Dew point: 75 °F

Location of SantarémLocation

Historic Weather in Santarém — Graph

°F

Santarém temperature yesterday

Maximum temperature yesterday: 91 °F (at 2:00 PM)
Minimum temperature yesterday: 75 °F (at 2:00 AM)
Average temperature yesterday: 84 °F

Past Weeks' High & Low Weather Summary

 TemperatureHumidityPressure
High93 °F (Sep 23, 4:00 PM)100% (Sep 16, 4:00 AM)29.98 "Hg (Sep 16, 4:00 AM)
Low73 °F (Sep 17, 4:00 AM)44% (Sep 23, 4:00 PM)29.77 "Hg (Sep 17, 4:00 PM)
Average83 °F77%29.87 "Hg
* Reported Sep 15 9:00 PM — Sep 30 9:00 PM, Santarém, Weather by CustomWeather, © 2014

Note: Actual official high and low records may vary slightly from our data, if they occured in-between our weather recording intervals... More about our weather records

Advertising

Santarém weather history for previous 24 hours

 ConditionsComfort  
Time TempWeatherWind HumidityBarometerVisibility
9:00 PM
Sep 30
84 °FPassing clouds.5 mph74%29.86 "HgN/A
8:00 PM84 °FPassing clouds.7 mph70%29.83 "HgN/A
7:00 PM86 °FPassing clouds.3 mph62%29.83 "HgN/A
6:00 PM90 °FPassing clouds.12 mph52%29.80 "HgN/A
5:00 PM91 °FPassing clouds.16 mph52%29.83 "HgN/A
4:00 PM91 °FPassing clouds.17 mph52%29.83 "HgN/A
3:00 PM91 °FPassing clouds.14 mph56%29.86 "HgN/A
2:00 PM91 °FPassing clouds.17 mph52%29.89 "HgN/A
1:00 PM91 °FPassing clouds.15 mph56%29.92 "HgN/A
12:00 PM90 °FPassing clouds.10 mph63%29.95 "HgN/A
11:00 AM90 °FPassing clouds.14 mph59%29.98 "HgN/A
10:00 AM88 °FPassing clouds.13 mph62%29.98 "HgN/A
9:00 AM86 °FPassing clouds.14 mph66%29.95 "HgN/A
8:00 AM82 °FSunny.12 mph74%29.95 "Hg10 mi
7:00 AM81 °FPassing clouds.13 mph79%29.92 "HgN/A
6:00 AM81 °FClear.9 mph84%29.89 "Hg10 mi
5:00 AM81 °FPassing clouds.7 mph84%29.89 "HgN/A
4:00 AM81 °FPassing clouds.9 mph84%29.89 "HgN/A
3:00 AM81 °FClear.12 mph84%29.89 "Hg10 mi
2:00 AM79 °FClear.3 mph84%29.89 "Hg10 mi
1:00 AM77 °FClear.3 mph89%29.89 "Hg10 mi
12:00 AM77 °FClear.5 mph89%29.89 "Hg10 mi
11:00 PM
Sep 29
79 °FClear.6 mph89%29.89 "Hg10 mi
10:00 PM84 °FClear.6 mph70%29.89 "Hg10 mi
9:00 PM84 °FClear.12 mph70%29.86 "Hg10 mi
Weather by CustomWeather, © 2014

See weather overviewHow to use our weather pages